Wetbulb
28.16 26.75 24.82 23.81 22.20 22.21 21.59 21.37 23.05 23.67 24.78 25.54 26.09 26.20 26.47 25.50 25.84 26.50 26.27 25.10 26.03 26.99
26.29 25.38 23.31 23.06 22.59 21.87 21.91 23.22 23.29 23.89 24.28 25.23 25.81 26.17 25.71 25.17 24.22 25.28 25.89 25.34 25.79 26.21
24.84 23.99 23.48 22.96 21.99 21.60 22.42 22.31 22.66 23.09 23.60 24.58 25.21 25.72 25.83 24.93 24.01 24.14 25.35 25.58 24.86 25.88
23.47 23.30 22.97 22.47 21.90 21.20 22.76 22.27 22.50 22.95 23.28 24.02 24.12 25.42 25.09 24.43 23.39 23.32 24.17 24.27 24.46 25.03
24.19 23.28 21.99 21.74 21.64 21.91 22.05 22.30 21.99 22.67 22.71 23.22 23.55 24.50 24.67 23.18 22.60 22.68 23.01 23.29 23.60 24.30
23.04 22.50 21.49 21.66 21.91 21.28 21.28 21.46 21.89 21.70 21.49 22.26 23.12 23.80 24.65 23.31 22.01 22.41 22.42 22.73 23.08 24.23
22.07 21.61 21.02 21.40 20.79 19.49 20.44 19.48 19.13 20.28 20.18 21.34 22.66 24.93 24.71 23.41 21.67 21.97 22.05 23.52 24.26 24.62
21.77 20.73 19.65 19.39 18.86 19.07 19.89 18.09 17.39 17.13 17.20 19.23 22.40 26.02 24.70 22.56 21.47 21.74 21.27 23.09 24.49 25.19
19.82 19.17 18.22 17.76 17.64 16.57 16.17 15.86 16.11 15.76 15.81 17.26 22.91 27.99 27.41 23.84 21.43 21.53 21.73 22.59 23.56 24.80
18.61 17.62 16.75 17.25 16.60 16.79 16.05 16.42 15.41 13.44 16.42 15.91 20.36 27.32 26.73 24.15 21.72 21.31 21.45 22.80 23.43 24.31
17.08 16.76 16.06 16.12 16.21 17.54 15.17 15.25 16.39 14.71 15.71 15.35 19.28 26.65 26.22 24.27 21.93 21.55 21.22 22.72 22.53 24.08
17.56 15.68 15.44 15.73 16.72 18.36 17.62 17.28 17.00 16.74 15.35 13.94 14.39 25.98 26.15 23.41 20.89 21.77 20.20 22.89 23.61 24.26
17.06 16.49 16.21 17.11 17.87 19.19 17.87 18.97 20.28 19.19 15.15 13.85 14.18 23.90 25.65 23.78 21.40 18.69 20.11 19.03 22.97 24.28
16.97 16.40 17.43 17.94 18.79 18.89 18.06 18.58 17.19 16.96 14.91 12.74 14.31 16.77 24.47 24.77 19.98 17.61 18.46 19.39 20.35 21.92
MSLP
1023.12 1023.84 1024.54 1025.10 1025.29 1025.63 1025.97 1026.17 1026.04 1025.97 1025.61 1025.35 1025.08 1024.68 1024.19 1023.87 1023.37 1023.01 1022.55 1022.03 1021.54 1020.60
1023.38 1023.86 1024.55 1025.21 1025.52 1025.66 1025.95 1026.00 1026.02 1025.87 1025.72 1025.45 1025.20 1024.76 1024.33 1024.08 1023.55 1023.22 1022.71 1022.26 1021.75 1021.00
1023.62 1024.18 1024.69 1025.14 1025.58 1025.78 1025.92 1025.99 1026.07 1026.09 1025.75 1025.46 1025.28 1024.93 1024.38 1024.14 1023.78 1023.44 1022.86 1022.50 1022.01 1021.35
1023.41 1024.15 1024.60 1025.01 1025.58 1025.79 1025.92 1026.06 1026.22 1026.09 1025.80 1025.76 1025.45 1025.02 1024.57 1024.33 1024.04 1023.69 1023.06 1022.74 1022.27 1021.69
1023.04 1023.81 1024.49 1024.94 1025.43 1025.68 1026.03 1026.13 1026.21 1026.13 1026.05 1026.09 1025.72 1025.31 1024.99 1024.65 1024.32 1024.02 1023.43 1023.11 1022.59 1021.92
1023.05 1023.59 1024.26 1024.87 1025.37 1025.81 1026.19 1026.29 1026.27 1026.34 1026.48 1026.42 1026.10 1025.52 1025.24 1024.99 1024.60 1024.28 1023.87 1023.50 1023.03 1022.38
1023.08 1023.65 1024.34 1024.81 1025.28 1025.75 1026.13 1026.51 1026.61 1026.70 1026.72 1026.67 1026.27 1025.61 1025.30 1025.18 1024.85 1024.57 1024.21 1023.86 1023.45 1022.84
1022.75 1023.44 1024.13 1024.74 1025.16 1025.72 1026.14 1026.67 1026.78 1026.97 1026.94 1026.72 1026.19 1025.61 1025.34 1025.34 1025.12 1024.82 1024.52 1024.18 1023.83 1023.24
1022.92 1023.81 1024.32 1024.76 1025.25 1025.79 1026.17 1026.74 1026.87 1026.93 1026.92 1026.90 1026.38 1025.54 1025.38 1025.52 1025.33 1025.16 1024.91 1024.50 1024.22 1023.62
1023.40 1023.99 1024.52 1024.95 1025.32 1025.86 1026.26 1026.65 1026.89 1027.07 1027.07 1027.06 1026.62 1025.72 1025.61 1025.72 1025.76 1025.64 1025.45 1025.04 1024.71 1024.11
1022.59 1023.92 1024.65 1025.10 1025.50 1026.03 1026.41 1026.62 1026.86 1027.13 1027.34 1027.36 1027.05 1026.05 1025.94 1025.90 1026.04 1025.98 1025.82 1025.50 1025.27 1024.68
1022.24 1023.44 1024.44 1025.19 1025.70 1026.10 1026.61 1026.67 1026.89 1027.21 1027.45 1027.58 1027.48 1026.27 1025.94 1026.26 1026.22 1026.24 1026.09 1025.70 1025.47 1025.11
1022.29 1023.10 1024.12 1025.04 1025.61 1026.06 1026.64 1026.71 1027.01 1027.24 1027.52 1027.65 1027.63 1026.74 1026.13 1026.39 1026.53 1026.54 1026.47 1026.07 1025.84 1025.44
1022.42 1022.70 1023.43 1024.60 1025.36 1026.09 1026.56 1026.78 1027.10 1027.19 1027.50 1027.71 1027.62 1027.55 1026.53 1026.27 1026.61 1026.71 1026.79 1026.58 1026.31 1025.93
Wind_Speed
8 4 5 4 3 3 2 3 3 4 5 6 6 6 6 4 6 8 6 9 9 9
6 7 6 6 4 3 4 1 3 4 5 6 6 6 6 5 6 7 6 6 9 8
7 7 6 6 5 4 4 3 4 4 5 5 6 6 6 5 5 7 6 7 9 9
7 7 6 6 5 4 4 3 4 4 5 5 6 7 6 7 7 8 8 9 10 11
10 8 7 6 5 5 4 4 3 4 5 5 6 8 7 8 7 8 9 10 11 11
10 9 8 7 6 5 4 3 4 5 5 5 6 6 6 7 7 7 7 8 9 11
10 9 8 7 7 5 4 4 4 3 4 4 6 6 7 9 7 6 7 8 9 9
10 10 9 8 7 6 5 4 4 3 4 4 4 6 7 7 6 6 7 7 9 9
10 9 9 8 8 6 6 4 5 3 3 4 5 13 14 9 5 7 8 9 9 10
10 9 9 8 8 7 6 4 5 3 4 3 5 13 13 10 5 6 6 9 10 10
12 10 9 8 7 7 5 5 4 4 4 4 4 12 13 9 4 4 4 7 8 11
12 12 10 9 8 7 5 5 4 4 5 4 4 11 12 7 3 4 4 7 6 9
11 11 11 9 9 6 4 6 5 6 4 4 3 9 12 8 4 4 3 5 7 14
10 11 11 10 8 7 5 6 4 5 4 2 2 5 10 11 4 2 3 4 5 6
Wind_Direction
128 122 115 106 115 104 76 61 352 349 351 345 343 341 333 334 346 343 338 333 346 336
131 127 129 126 116 110 92 76 3 8 360 348 348 350 339 340 343 339 335 342 347 347
139 127 127 129 120 109 94 59 36 15 0 0 353 345 341 343 345 343 340 355 349 356
136 131 133 127 124 120 102 61 46 13 13 14 350 332 351 349 356 344 347 350 354 356
141 141 136 133 131 116 99 70 45 20 32 17 345 331 7 357 351 348 355 352 354 352
151 149 139 132 125 100 98 55 43 47 34 1 331 337 9 357 347 348 357 350 353 343
157 145 139 135 127 124 129 103 75 42 29 349 327 342 24 1 344 352 0 354 353 345
147 142 141 138 136 130 122 122 100 70 29 347 350 345 26 8 344 2 3 357 355 345
145 144 146 143 142 130 122 121 99 71 55 14 12 7 20 16 4 18 11 7 356 344
147 155 153 145 139 142 129 129 107 75 59 32 339 16 27 30 23 31 13 21 358 348
156 152 147 145 144 141 131 136 119 94 57 39 341 20 32 36 33 29 26 23 356 348
153 153 152 152 145 141 145 128 116 106 80 47 340 21 36 32 30 22 19 24 12 352
156 152 150 146 145 141 141 133 124 110 97 73 4 0 36 51 27 15 358 360 15 7
148 147 145 141 141 141 138 121 117 117 116 86 38 350 42 47 44 32 356 7 9 355